Location: Ústí nad Labem
(50.6611°N, 14.0531°E)
Time: 02:18:10
(UTC+02:00)

A-11 Canister half - Pass Details

Date: 18 April 2024
Orbit: 1525 x 1683 km, 47.3° (Epoch: 19 May)

Event Time Altitude Azimuth Distance (km) Brightness Sun altitude
Rises 05:16:22 0° 177° (S) 4,855 11.4 -7.6°
Reaches altitude 10° 05:21:14 10° 157° (SSE) 3,899 11.1 -6.9°
Maximum altitude 05:26:25 16° 125° (SE) 3,492 11.3 -6.2°
Drops below altitude 10° 05:31:38 10° 93° (E) 3,944 12.3 -5.4°
Sets 05:36:34 0° 73° (ENE) 4,942 14.2 -4.7°
